Wetbulb
57.56 58.32 58.99 59.31 59.36 59.62 59.71 59.69 59.70 59.99 60.32 60.32 60.48 60.70 60.58 60.35 59.27 58.18 52.17 58.51 60.31 65.86 64.12 55.22 54.95 55.05 52.62 50.04 51.75 52.25 45.45 45.69 47.82 50.81 54.75 59.52 57.84 59.30 60.17 57.00 64.54 65.66 65.07 66.96 68.00
57.62 57.87 58.92 59.22 59.38 59.47 59.50 59.48 59.57 59.77 59.88 60.23 60.36 60.36 60.16 60.04 56.09 54.71 62.77 65.45 65.88 66.54 53.86 53.13 53.47 53.05 48.18 49.00 49.22 48.12 44.09 46.53 51.35 52.51 50.68 58.41 56.98 57.00 56.07 60.06 62.57 63.68 66.06 66.96 64.61
58.01 58.42 58.81 59.13 59.35 59.14 59.22 59.20 59.31 59.78 59.97 60.01 59.90 59.92 59.96 59.12 54.11 54.60 67.59 67.29 66.03 62.94 55.51 54.91 55.36 53.35 47.40 47.54 47.97 48.74 46.32 50.76 52.15 52.25 51.87 57.40 56.20 57.87 55.06 52.02 61.56 61.30 61.29 62.52 62.46
57.98 58.25 58.58 58.92 58.85 58.79 58.90 59.18 59.58 60.16 60.14 59.75 59.59 59.78 60.15 57.00 45.73 52.68 68.62 68.14 66.45 57.87 55.12 55.13 54.42 47.97 46.07 45.86 49.68 45.20 50.04 51.80 49.91 50.56 50.82 51.30 58.00 53.89 51.88 52.26 62.72 62.60 61.53 61.13 60.90
58.21 58.06 58.44 58.49 58.41 58.64 58.74 59.07 59.48 59.41 59.36 59.26 59.52 60.29 55.67 51.86 52.18 58.17 70.14 68.17 59.80 56.52 54.12 54.37 52.69 49.02 46.24 48.07 49.88 47.15 48.97 50.31 50.14 50.15 48.87 52.06 52.54 51.73 50.60 55.46 61.50 62.24 61.54 60.28 58.96
58.21 58.21 58.12 58.09 58.18 58.24 58.11 58.00 58.01 58.29 58.66 59.26 59.92 60.01 56.66 48.38 56.81 58.16 60.81 58.01 58.74 55.57 54.67 54.71 51.99 50.93 49.14 49.11 47.49 50.35 49.63 49.39 48.52 47.97 49.00 48.68 49.62 52.00 52.19 54.16 58.60 59.73 59.36 58.79 60.65
57.62 57.68 57.59 57.89 58.08 58.13 57.91 57.35 57.26 57.69 58.73 59.64 60.87 59.37 54.00 52.80 58.66 56.87 56.55 54.69 56.31 55.63 53.10 54.39 54.27 51.34 50.03 48.18 51.03 50.57 46.69 48.52 48.54 48.31 48.83 50.16 47.92 49.82 53.42 53.78 54.57 56.27 56.64 59.32 61.29
57.38 57.05 57.26 57.61 58.02 58.16 58.21 57.69 57.50 58.08 59.15 60.19 61.31 55.74 51.08 59.72 55.95 54.85 55.30 55.07 55.82 55.05 54.64 54.94 54.73 51.52 48.25 50.71 50.79 46.44 45.92 41.64 46.59 49.16 49.13 48.58 42.32 49.67 53.13 52.00 51.24 54.15 54.96 59.02 60.48
56.88 56.73 56.93 57.27 57.70 57.99 57.65 57.01 57.70 58.84 60.09 60.53 55.95 52.80 51.44 59.35 53.68 56.14 55.43 54.61 55.18 54.61 54.42 56.98 51.67 48.86 49.54 45.05 43.04 44.33 39.27 41.08 44.47 48.17 47.96 46.12 43.31 50.93 51.99 51.08 49.59 50.28 52.47 57.08 59.39
56.37 56.30 56.43 56.78 57.35 57.07 56.41 56.69 58.51 57.66 59.90 60.62 58.65 51.59 54.46 53.82 54.62 57.89 56.12 56.04 53.56 53.39 53.08 50.85 47.75 44.01 44.15 42.17 37.67 40.31 40.30 42.56 45.03 47.35 48.56 44.48 45.25 50.95 52.61 52.05 51.78 51.22 51.68 56.82 59.58
56.15 55.82 56.14 56.39 56.64 56.14 55.96 56.62 54.08 52.80 53.68 51.20 53.85 54.34 55.01 55.44 56.62 55.69 57.25 54.83 53.49 51.72 46.46 49.70 43.62 40.88 43.84 46.07 47.07 46.17 44.07 43.78 47.90 49.81 47.83 46.17 45.21 50.09 52.24 52.06 50.95 50.79 51.23 54.38 59.03
55.91 55.58 56.06 56.22 56.33 56.08 53.51 54.57 56.31 54.60 50.65 56.27 56.75 55.81 57.14 55.30 53.45 55.26 56.54 50.71 51.03 47.50 49.70 47.16 43.50 48.71 50.23 48.70 46.90 44.99 43.03 42.50 46.63 50.03 47.39 46.72 46.15 48.32 51.85 52.13 52.26 52.16 51.40 54.85 58.46
54.87 54.95 55.70 56.06 55.66 53.73 55.56 59.07 58.16 56.57 50.43 56.59 57.29 54.22 53.88 54.09 52.98 53.72 54.49 52.70 50.02 47.86 48.04 45.17 47.35 52.04 50.33 47.64 46.90 44.13 42.20 44.89 44.70 49.41 48.75 46.70 44.17 46.98 50.08 51.64 53.25 52.72 53.20 58.15 58.37
54.57 54.64 55.31 55.07 54.94 57.67 58.18 60.58 60.64 60.33 47.59 53.48 52.31 54.91 55.68 54.47 52.98 56.57 56.65 53.15 50.28 47.92 48.74 47.23 50.23 50.02 47.21 47.02 47.61 43.04 48.99 48.82 47.90 44.37 38.44 46.09 35.46 42.85 49.15 49.81 52.27 52.06 52.70 57.63 58.55
54.53 54.67 54.79 53.61 53.34 55.17 57.43 58.00 59.01 58.89 40.38 52.10 52.43 56.21 55.13 51.87 53.43 53.82 56.84 53.77 50.50 50.18 49.37 46.89 49.16 48.54 47.50 48.79 50.56 46.71 50.04 47.39 46.57 42.40 40.83 42.49 38.41 42.68 46.99 45.80 50.11 52.80 55.31 57.92 59.02
54.48 54.42 53.42 55.69 54.61 56.62 59.89 59.12 57.80 47.76 41.59 50.67 52.50 50.96 50.18 52.12 52.27 54.08 53.81 55.20 54.17 51.20 52.02 49.93 52.92 50.20 49.26 51.67 50.88 51.22 47.28 45.98 44.37 39.90 34.19 41.47 42.39 40.76 45.16 47.52 50.61 53.57 55.18 56.28 57.17
54.11 53.75 52.09 60.10 57.85 61.98 60.34 56.17 45.52 41.78 55.50 50.33 49.21 50.59 49.27 49.65 50.99 51.85 51.86 49.30 46.68 43.63 44.17 49.84 49.87 51.67 52.70 48.53 50.52 48.18 41.76 35.86 34.83 34.70 36.00 45.67 43.03 43.42 48.90 51.42 52.35 53.07 55.17 56.59 57.31
52.94 51.77 56.80 62.14 63.57 61.20 58.20 50.37 40.30 50.46 51.69 54.49 52.43 50.80 49.48 52.17 50.83 53.45 50.00 47.20 51.23 50.06 45.42 43.13 41.88 50.92 53.09 49.88 45.38 45.51 42.34 36.77 30.42 32.66 36.02 46.32 38.46 41.88 49.91 51.12 51.63 52.38 54.65 55.46 54.60
51.52 59.60 60.10 62.39 64.42 60.40 53.80 44.23 45.81 51.78 52.99 50.93 50.51 48.16 48.01 51.44 51.12 50.79 48.90 49.23 51.66 50.89 43.86 42.56 44.19 52.20 52.85 52.54 48.96 44.95 40.53 44.92 39.76 40.28 35.18 39.22 45.03 49.02 51.06 51.06 51.58 52.40 52.40 50.91 51.26
52.17 56.94 57.60 62.91 62.45 58.60 50.36 46.24 50.88 55.83 53.80 52.46 46.76 49.74 47.25 50.07 49.86 49.94 49.23 53.13 52.83 53.52 51.23 47.27 41.17 50.43 51.96 53.04 50.73 46.64 47.42 38.74 39.17 31.01 30.33 37.68 40.99 42.62 46.42 46.46 48.29 47.62 47.82 48.75 49.33
55.08 54.85 60.82 62.73 61.40 53.56 45.31 48.87 52.97 54.79 53.80 51.53 49.47 49.29 49.66 49.12 49.71 48.39 49.32 51.89 53.48 52.38 51.34 48.99 44.64 46.15 50.43 47.74 45.79 45.65 44.46 44.93 44.03 39.91 32.65 31.69 36.86 46.58 45.19 46.33 47.46 47.95 48.07 47.67 47.81
53.41 50.77 60.59 60.67 51.42 50.10 46.22 51.69 52.44 55.17 54.96 54.99 53.78 52.32 49.78 51.05 49.46 48.75 48.79 51.09 55.31 52.85 48.93 49.11 45.15 40.67 44.73 50.76 52.16 48.75 45.20 43.88 36.16 35.99 38.24 35.89 34.83 47.33 46.65 47.52 47.74 47.38 49.15 48.70 48.15
49.42 51.53 58.03 57.31 44.92 46.47 52.47 53.94 55.17 53.72 53.32 52.89 52.10 53.18 52.39 49.34 44.81 49.90 50.84 53.58 55.08 53.32 47.81 46.89 42.90 36.53 39.78 45.22 49.65 46.48 48.91 47.85 43.36 40.92 36.38 31.94 35.54 47.96 49.36 48.98 50.37 48.23 46.65 48.36 48.68
50.38 48.16 53.76 55.15 52.67 49.57 49.25 50.88 50.54 54.21 53.33 53.01 51.95 51.82 49.53 48.11 49.48 48.25 49.99 53.37 55.11 52.07 53.70 51.42 43.13 40.14 35.48 40.39 45.28 43.93 47.05 47.39 44.13 35.56 37.21 38.36 40.83 44.70 45.92 47.08 47.24 45.87 46.66 47.12 47.38
52.79 49.84 52.70 46.41 47.80 49.99 49.65 49.00 47.95 48.56 53.88 53.57 49.96 50.23 48.39 44.36 46.88 46.91 51.28 51.59 52.92 52.62 49.51 47.32 41.29 44.19 45.89 47.82 47.41 46.20 46.34 47.02 43.50 43.49 39.20 42.16 43.16 44.48 46.81 44.02 45.83 47.18 47.61 47.50 46.64
50.51 49.54 50.96 47.38 50.17 49.01 47.32 46.65 47.60 49.06 50.71 49.61 48.69 51.02 50.25 46.66 47.90 46.52 49.60 48.21 48.25 49.69 47.89 49.32 41.72 44.04 43.05 47.53 47.22 45.11 47.01 46.99 45.68 45.22 43.66 43.72 42.97 47.78 45.61 47.70 46.42 46.04 46.17 45.01 45.12
55.84 55.99 51.96 48.47 47.59 45.94 46.57 49.17 49.80 51.00 51.25 52.21 50.92 48.81 48.45 50.59 52.10 50.99 49.37 49.05 47.08 45.36 44.93 44.30 42.69 41.28 37.40 45.08 44.09 37.60 44.97 45.63 45.62 46.13 44.81 39.64 42.80 45.55 44.44 45.47 44.29 44.24 44.71 45.00 44.48
MSLP
1017.50 1017.36 1017.17 1016.97 1016.77 1016.58 1016.40 1016.21 1016.00 1015.78 1015.53 1015.26 1015.06 1014.89 1014.65 1014.39 1013.67 1013.60 1012.57 1010.53 1010.20 1010.08 1010.00 1009.44 1009.05 1008.76 1008.66 1008.75 1008.36 1008.27 1009.28 1009.12 1008.27 1007.86 1008.66 1008.85 1009.70 1009.40 1007.74 1007.95 1008.28 1008.85 1008.86 1009.79 1010.48
1017.37 1017.18 1016.95 1016.76 1016.59 1016.44 1016.25 1016.05 1015.84 1015.60 1015.34 1015.12 1014.96 1014.80 1014.58 1014.43 1013.85 1012.19 1010.02 1009.95 1009.94 1009.88 1009.76 1009.58 1009.24 1008.66 1008.76 1008.43 1008.33 1008.23 1008.66 1007.75 1007.11 1006.93 1006.57 1008.40 1007.73 1007.47 1007.50 1007.80 1008.52 1008.73 1008.84 1009.31 1009.94
1017.27 1017.07 1016.84 1016.62 1016.44 1016.26 1016.06 1015.87 1015.68 1015.41 1015.12 1014.93 1014.84 1014.68 1014.54 1014.53 1013.52 1010.42 1009.24 1009.61 1009.71 1009.61 1009.64 1009.44 1008.98 1008.69 1008.57 1008.07 1007.73 1007.58 1007.87 1006.78 1006.29 1005.90 1005.76 1006.95 1006.99 1006.58 1006.80 1007.69 1008.27 1008.69 1009.18 1009.50 1009.69
1017.06 1016.88 1016.70 1016.52 1016.33 1016.12 1015.92 1015.74 1015.54 1015.27 1014.96 1014.75 1014.74 1014.51 1014.26 1014.15 1012.22 1009.46 1009.27 1009.41 1009.39 1009.41 1009.65 1009.29 1008.78 1008.72 1008.30 1008.21 1007.21 1007.61 1006.47 1005.92 1005.77 1005.35 1005.54 1006.08 1006.38 1006.91 1006.86 1007.00 1007.72 1008.43 1008.97 1009.56 1010.10
1016.93 1016.76 1016.57 1016.34 1016.12 1015.90 1015.72 1015.52 1015.30 1015.04 1014.81 1014.67 1014.62 1014.39 1013.50 1013.02 1010.55 1008.93 1009.14 1009.37 1009.20 1009.49 1009.42 1009.25 1008.95 1008.19 1007.92 1007.40 1006.97 1006.46 1005.95 1005.44 1005.19 1005.02 1005.61 1005.69 1006.66 1007.06 1007.16 1007.10 1007.52 1008.29 1008.90 1009.62 1010.76
1016.91 1016.68 1016.46 1016.25 1016.00 1015.76 1015.53 1015.32 1015.11 1014.85 1014.64 1014.54 1014.41 1014.07 1013.59 1011.56 1008.31 1008.33 1008.74 1008.96 1008.72 1008.90 1008.35 1008.42 1008.04 1007.29 1006.99 1006.78 1006.63 1005.62 1005.47 1005.34 1005.12 1005.27 1005.65 1005.91 1006.61 1006.75 1007.47 1007.17 1007.75 1008.27 1009.05 1009.68 1010.97
1016.76 1016.50 1016.29 1016.06 1015.80 1015.56 1015.32 1015.10 1014.84 1014.53 1014.36 1014.39 1014.35 1013.86 1012.63 1010.16 1007.86 1007.89 1008.14 1008.13 1007.93 1007.82 1007.71 1007.33 1007.07 1007.35 1007.41 1007.16 1005.82 1005.68 1005.95 1005.74 1005.43 1005.56 1005.87 1006.01 1006.86 1007.70 1007.24 1007.18 1007.77 1008.45 1008.95 1010.06 1010.91
1016.67 1016.37 1016.06 1015.79 1015.59 1015.41 1015.13 1014.79 1014.42 1014.06 1014.04 1014.09 1014.13 1013.59 1011.67 1008.18 1007.81 1007.67 1007.66 1007.67 1007.29 1007.20 1007.23 1007.11 1007.11 1007.46 1007.69 1007.10 1006.86 1006.52 1006.56 1006.89 1006.00 1005.67 1006.07 1006.35 1007.39 1007.50 1007.47 1007.62 1008.03 1008.39 1009.11 1009.95 1010.69
1016.56 1016.21 1015.90 1015.62 1015.37 1015.11 1014.70 1014.32 1013.89 1013.60 1013.75 1013.93 1013.89 1013.09 1010.36 1007.74 1007.63 1007.39 1007.33 1007.36 1007.19 1007.08 1007.04 1007.12 1007.42 1008.02 1007.93 1008.20 1008.01 1007.37 1007.36 1007.09 1006.17 1005.44 1006.14 1006.62 1007.56 1007.57 1007.49 1007.79 1008.21 1008.47 1009.00 1009.78 1010.99
1016.37 1015.97 1015.62 1015.39 1015.16 1014.83 1014.25 1013.85 1013.29 1013.36 1012.85 1013.09 1012.54 1012.25 1009.37 1007.59 1007.32 1007.23 1007.25 1007.32 1007.45 1007.27 1007.32 1007.30 1007.87 1008.35 1008.45 1008.57 1008.71 1007.95 1007.75 1007.09 1006.18 1005.23 1005.92 1006.95 1007.34 1007.48 1007.34 1007.60 1008.06 1008.42 1009.00 1009.90 1010.81
1016.24 1015.74 1015.28 1015.13 1015.04 1014.74 1013.78 1013.30 1013.50 1013.06 1012.29 1011.22 1010.24 1009.15 1007.66 1007.03 1006.95 1006.94 1006.92 1007.14 1007.29 1007.45 1007.71 1007.36 1008.30 1008.48 1008.04 1007.88 1007.50 1007.35 1007.32 1007.05 1006.13 1005.58 1006.19 1006.63 1007.16 1007.48 1007.50 1007.81 1008.07 1008.57 1008.85 1009.93 1010.67
1016.22 1015.67 1015.13 1014.78 1014.68 1014.68 1014.66 1013.36 1011.19 1010.58 1010.28 1009.66 1008.88 1008.26 1007.39 1006.97 1006.81 1006.50 1006.60 1007.19 1007.23 1007.67 1007.30 1007.69 1007.63 1006.96 1006.79 1006.81 1007.00 1007.08 1007.21 1007.23 1006.68 1006.26 1006.79 1007.47 1007.80 1007.68 1008.04 1007.84 1007.75 1008.13 1008.55 1009.72 1011.14
1016.26 1015.67 1015.08 1014.57 1014.15 1014.47 1013.46 1011.77 1009.61 1009.53 1009.75 1008.15 1007.59 1007.23 1006.85 1006.98 1006.58 1006.39 1006.67 1006.79 1006.98 1007.26 1007.21 1007.14 1006.82 1006.49 1006.70 1006.90 1007.07 1007.20 1007.63 1007.71 1007.85 1007.38 1007.48 1008.08 1008.71 1008.72 1008.08 1008.00 1007.96 1008.09 1008.44 1009.72 1010.93
1016.25 1015.64 1015.04 1014.41 1014.10 1012.71 1011.65 1009.86 1009.43 1009.43 1009.74 1007.60 1006.81 1006.35 1006.34 1006.62 1006.61 1006.35 1006.51 1006.92 1006.87 1007.06 1006.94 1006.93 1006.54 1006.65 1006.86 1007.03 1007.12 1007.62 1007.82 1008.10 1008.56 1009.07 1009.37 1009.39 1010.03 1010.12 1009.94 1009.13 1009.22 1009.19 1009.40 1010.27 1011.34
1016.08 1015.47 1014.96 1014.99 1014.16 1012.55 1010.29 1009.38 1009.61 1009.84 1009.27 1006.94 1006.26 1005.77 1006.01 1006.67 1006.49 1006.58 1006.53 1006.70 1007.13 1007.18 1007.48 1007.38 1007.03 1006.80 1007.02 1007.35 1007.38 1007.87 1008.23 1008.94 1009.48 1010.12 1010.73 1011.15 1011.68 1012.01 1011.84 1012.39 1011.97 1011.60 1010.13 1011.18 1011.90
1015.83 1015.30 1014.80 1014.46 1013.93 1011.57 1010.35 1009.72 1009.96 1010.39 1008.27 1006.26 1005.93 1005.95 1006.31 1006.37 1006.18 1006.52 1006.54 1006.75 1006.83 1007.42 1007.52 1007.49 1006.85 1006.85 1007.18 1007.49 1007.72 1008.05 1008.67 1009.57 1010.36 1011.29 1012.70 1013.42 1013.83 1013.63 1013.94 1013.86 1013.82 1013.72 1011.74 1011.71 1012.73
1015.51 1014.77 1014.87 1013.49 1012.31 1010.65 1010.34 1010.67 1010.81 1009.72 1007.36 1006.44 1005.96 1005.92 1006.13 1006.26 1006.27 1006.41 1006.84 1007.36 1007.69 1008.15 1008.46 1008.02 1007.50 1006.93 1007.36 1007.95 1008.07 1008.85 1009.86 1011.32 1012.40 1013.08 1013.40 1012.93 1014.09 1014.45 1014.12 1014.20 1013.55 1013.39 1012.27 1013.14 1014.20
1015.22 1014.27 1013.07 1012.30 1011.37 1010.97 1011.13 1011.52 1010.83 1008.84 1007.84 1006.61 1006.32 1006.28 1006.46 1006.39 1006.57 1006.92 1007.43 1007.99 1007.98 1008.32 1009.11 1009.49 1008.97 1008.37 1008.21 1008.35 1008.93 1009.67 1010.58 1011.96 1013.24 1014.20 1014.34 1013.86 1014.33 1014.50 1013.83 1013.56 1013.01 1013.27 1014.05 1014.50 1015.32
1014.96 1013.53 1012.80 1011.43 1011.05 1011.11 1011.84 1011.63 1010.15 1008.83 1008.19 1007.69 1007.22 1006.98 1007.07 1006.69 1007.25 1007.61 1007.93 1008.50 1009.08 1009.43 1010.27 1010.49 1009.97 1009.41 1009.04 1008.57 1009.26 1010.13 1010.99 1011.75 1012.96 1013.93 1014.97 1015.12 1015.25 1014.70 1014.15 1013.74 1013.41 1013.70 1014.38 1015.19 1015.79
1016.08 1014.08 1012.02 1010.35 1010.58 1011.46 1012.33 1011.53 1010.08 1008.75 1008.38 1008.18 1008.15 1008.06 1008.15 1008.16 1008.59 1008.61 1008.63 1009.37 1010.13 1010.62 1010.87 1011.47 1011.21 1010.57 1009.90 1009.47 1009.63 1010.53 1010.84 1012.21 1013.80 1015.53 1016.20 1015.97 1016.17 1015.80 1015.12 1014.90 1015.12 1015.47 1015.68 1015.91 1016.19
1016.04 1014.05 1011.02 1010.17 1010.58 1011.78 1012.42 1011.25 1009.92 1008.88 1008.80 1008.80 1008.97 1009.17 1009.40 1009.35 1009.41 1009.46 1009.86 1010.99 1011.20 1011.62 1011.77 1012.48 1012.47 1011.99 1011.00 1010.82 1010.88 1011.29 1012.11 1013.55 1015.02 1015.75 1016.60 1016.84 1016.40 1015.13 1015.64 1015.55 1015.40 1015.85 1016.38 1016.73 1017.14
1017.03 1014.55 1011.27 1010.52 1011.70 1011.80 1011.87 1011.10 1010.16 1009.12 1009.00 1009.10 1009.29 1009.76 1010.04 1010.22 1010.47 1010.54 1010.94 1011.59 1011.96 1012.22 1013.00 1013.87 1013.58 1013.38 1012.86 1011.64 1011.01 1011.78 1012.64 1013.67 1015.03 1016.06 1016.50 1016.88 1016.75 1015.62 1015.82 1015.92 1016.08 1016.69 1016.92 1017.23 1017.75
1018.54 1015.01 1011.43 1011.10 1012.23 1012.37 1011.76 1010.91 1009.71 1009.56 1009.55 1009.80 1009.98 1010.44 1010.58 1011.10 1011.45 1011.29 1011.48 1012.07 1012.26 1012.74 1013.68 1014.40 1014.79 1014.76 1013.87 1012.82 1012.41 1012.62 1012.99 1013.53 1014.13 1015.17 1016.55 1017.26 1017.29 1016.68 1016.13 1016.13 1016.79 1017.65 1017.65 1018.02 1018.75
1019.28 1015.86 1013.11 1012.35 1012.54 1012.83 1012.63 1011.72 1010.77 1010.04 1010.24 1010.51 1010.84 1011.20 1011.55 1011.83 1011.83 1011.82 1011.77 1012.04 1012.72 1013.47 1014.21 1014.75 1015.48 1015.81 1015.60 1014.76 1013.96 1013.45 1013.04 1013.76 1014.09 1015.40 1015.90 1016.32 1017.13 1017.60 1017.09 1017.20 1017.34 1018.06 1018.62 1019.16 1019.70
1019.09 1016.61 1015.71 1014.69 1014.13 1013.91 1013.57 1012.95 1012.14 1011.46 1011.00 1011.10 1011.45 1012.04 1012.34 1012.56 1012.39 1012.40 1012.27 1012.68 1013.45 1014.03 1014.63 1015.34 1016.07 1016.12 1015.83 1015.12 1014.28 1013.59 1013.13 1013.20 1013.60 1014.23 1015.33 1015.39 1016.66 1017.88 1018.20 1018.35 1018.66 1018.95 1019.39 1019.84 1020.41
1019.31 1017.60 1016.58 1016.16 1015.14 1014.45 1014.08 1013.63 1013.06 1012.29 1012.22 1012.28 1012.60 1012.78 1013.01 1013.58 1013.81 1013.40 1013.10 1013.53 1014.07 1014.65 1015.24 1015.68 1016.18 1016.34 1016.30 1015.67 1014.85 1014.14 1013.60 1013.22 1013.37 1013.80 1014.86 1016.12 1017.01 1017.60 1018.23 1018.76 1019.48 1020.11 1020.64 1021.12 1021.69
1019.34 1018.21 1017.56 1016.77 1015.90 1015.27 1014.41 1013.70 1013.15 1013.08 1013.04 1012.94 1013.24 1013.53 1013.85 1014.13 1013.96 1013.93 1013.79 1013.88 1014.08 1014.60 1015.35 1016.16 1016.96 1017.31 1016.84 1016.41 1015.66 1014.96 1014.17 1014.00 1014.26 1015.21 1015.50 1017.06 1018.24 1018.14 1018.79 1019.64 1020.26 1020.70 1021.26 1021.60 1022.15
Wind_Speed
6 7 7 7 8 8 8 9 10 10 10 11 11 11 11 12 16 3 5 7 5 2 6 8 9 10 8 6 7 5 2 9 13 7 18 21 17 13 8 7 11 6 12 13 9
7 7 8 7 7 8 8 9 10 11 11 11 11 10 11 11 5 8 9 7 5 1 4 7 10 8 3 6 5 1 2 9 9 3 5 24 15 10 7 16 15 16 8 10 11
7 7 7 7 7 8 8 9 10 11 12 11 11 10 10 6 4 7 11 9 7 3 4 6 11 8 6 5 9 8 8 12 9 7 9 15 5 6 8 7 18 17 10 8 7
8 8 8 7 8 8 9 10 11 11 12 12 10 12 10 4 3 3 9 8 7 1 5 7 9 5 5 8 11 6 12 11 3 7 8 1 4 8 11 6 18 16 11 8 6
9 9 8 8 8 9 9 10 11 12 12 12 10 10 4 3 10 6 7 7 4 3 7 8 10 8 8 7 9 7 6 5 4 7 6 7 8 9 8 11 16 14 12 9 11
9 9 9 9 9 9 10 11 11 12 12 10 11 13 3 6 6 11 10 8 9 8 9 9 10 6 8 8 6 3 5 3 2 3 4 4 0 10 4 8 12 11 10 9 17
10 10 10 10 10 10 11 11 12 13 11 9 8 5 5 12 4 10 11 8 9 6 8 9 10 9 10 11 9 6 6 7 4 5 5 6 8 6 10 9 11 10 7 11 16
12 10 10 10 11 11 11 12 12 13 11 9 4 3 8 8 5 5 8 9 9 6 8 7 8 8 4 8 11 5 6 5 8 9 5 12 8 7 8 9 8 10 8 13 15
13 11 10 10 10 11 13 13 15 13 7 5 3 3 9 2 3 9 2 6 8 4 5 5 1 5 10 6 7 5 6 8 11 10 7 8 5 7 8 9 8 8 9 10 12
15 12 11 10 10 11 15 9 8 12 4 7 7 5 8 5 3 2 4 2 6 7 7 5 2 3 6 2 6 9 5 9 8 7 9 7 8 8 10 9 8 6 8 13 19
17 15 13 10 8 9 10 3 3 3 4 8 6 7 6 6 5 7 8 7 8 6 6 8 3 8 14 13 11 7 5 8 7 6 6 7 5 8 10 7 9 8 8 11 18
18 16 15 12 8 5 2 4 7 6 7 17 19 14 8 4 4 6 5 4 5 8 7 6 9 14 5 3 6 8 7 9 3 5 4 6 5 5 7 10 9 10 9 14 16
19 17 15 14 13 3 5 10 9 7 3 12 17 7 7 5 10 5 4 6 6 7 10 5 4 7 7 8 8 7 4 6 6 4 4 3 5 7 10 6 8 6 6 19 19
21 18 15 18 3 4 7 11 6 7 2 6 5 5 5 4 5 2 4 4 7 6 4 5 2 5 4 6 5 5 8 9 11 9 2 3 6 4 13 11 6 8 8 15 16
23 19 15 2 6 6 5 3 5 5 3 10 7 3 5 6 6 4 1 4 7 8 6 9 7 9 7 4 7 5 8 7 6 8 7 11 6 7 12 11 17 15 9 13 14
26 19 16 4 3 11 12 8 4 3 6 6 7 8 5 9 6 8 6 5 6 4 8 8 5 3 2 7 7 5 8 8 6 2 4 4 5 6 8 6 6 20 7 9 15
28 21 6 5 5 10 8 5 3 3 5 5 6 7 10 9 7 5 2 5 3 1 5 9 9 8 7 6 8 8 4 5 6 6 5 5 6 4 4 11 9 4 5 18 12
31 19 7 6 9 7 5 4 3 10 4 2 4 7 2 6 4 0 4 4 7 3 5 6 8 7 4 1 2 6 1 5 2 3 5 3 2 5 1 7 9 12 13 11 8
25 3 3 6 8 2 5 1 4 6 5 11 10 4 6 2 4 5 3 4 6 8 4 3 4 14 15 2 5 6 5 3 1 4 4 4 6 9 7 4 8 14 13 10 8
5 4 6 10 6 4 3 5 5 5 6 7 4 6 10 4 3 5 4 7 6 8 6 5 6 4 9 3 4 4 4 7 6 4 4 4 3 2 7 8 9 9 9 8 9
3 4 2 5 4 4 3 6 13 9 6 7 7 6 10 8 9 7 8 6 9 7 8 7 1 8 8 4 4 5 6 8 3 3 4 2 3 7 7 6 8 8 8 8 9
5 4 2 4 3 3 4 7 4 5 5 2 2 2 4 7 7 7 7 5 3 4 3 1 2 3 9 10 1 2 3 2 6 5 1 5 5 2 9 7 9 7 7 7 11
6 5 6 5 1 4 7 13 4 3 5 7 6 9 5 5 4 5 5 7 2 3 4 3 4 4 9 7 7 4 10 6 3 4 2 4 4 6 9 9 10 6 7 9 13
4 4 5 1 2 4 6 6 11 5 3 3 3 8 6 4 7 3 6 7 6 5 6 5 0 3 5 9 7 6 2 11 2 4 6 6 2 8 8 2 8 9 11 10 10
3 4 5 4 6 6 8 8 11 9 2 1 3 5 6 4 4 6 5 7 7 6 4 5 1 4 7 11 14 15 12 10 2 5 5 9 3 9 1 6 10 10 12 12 12
3 4 4 6 8 5 3 5 9 11 6 7 6 8 8 5 6 7 5 6 5 3 4 4 3 4 4 10 14 17 11 13 7 7 5 15 12 8 5 11 12 10 9 8 10
4 4 3 6 7 6 6 7 5 7 5 7 8 5 7 8 8 5 3 0 3 1 1 1 3 5 4 6 9 7 5 6 11 17 10 12 7 8 9 11 6 7 6 9 11
Wind_Direction
325 325 325 324 326 326 323 322 320 316 314 311 314 321 320 321 305 183 244 219 181 292 310 291 287 248 248 265 271 275 329 267 270 320 106 168 196 215 218 127 94 125 112 120 153
325 323 323 323 322 321 319 317 314 311 309 309 315 321 320 329 273 252 241 172 161 10 312 291 297 260 238 240 261 157 214 260 274 314 142 159 181 186 146 116 114 112 121 132 131
329 321 318 316 315 314 313 310 308 306 305 308 317 318 311 312 287 238 152 184 181 182 254 272 274 281 237 242 249 250 225 256 288 28 19 141 146 167 160 115 133 135 147 150 160
339 330 321 315 309 307 305 303 302 303 305 310 318 310 298 226 336 164 185 190 181 272 292 295 288 282 273 242 246 235 242 248 305 47 5 227 173 130 95 134 133 137 152 151 127
341 332 322 315 308 307 304 303 302 302 303 306 315 316 337 256 243 170 200 206 169 181 225 242 270 251 250 252 285 211 239 293 86 56 324 11 105 123 93 105 128 141 143 162 99
340 331 322 310 303 298 295 294 294 293 295 306 318 314 254 275 198 166 204 194 230 196 254 244 241 311 276 283 324 270 225 246 55 55 312 47 78 97 132 104 120 126 150 150 120
340 334 323 312 304 299 297 295 292 290 293 306 316 306 282 249 301 176 191 233 230 261 307 328 342 18 328 321 308 299 8 325 173 190 199 90 338 124 162 140 136 134 160 119 122
339 330 321 312 306 305 301 296 292 289 300 297 275 272 257 277 236 299 230 248 242 232 266 299 2 340 289 300 318 2 357 302 270 200 185 107 252 308 153 125 147 157 179 136 139
340 328 318 312 313 310 301 293 285 284 257 269 269 199 269 222 207 247 261 299 319 233 287 276 29 268 316 308 333 301 237 249 262 205 153 119 217 160 150 153 181 182 184 144 118
344 332 321 318 320 316 301 264 295 316 196 204 252 312 270 238 148 10 295 20 293 281 288 224 197 227 307 340 241 256 245 271 265 212 129 164 209 175 177 164 179 191 191 136 133
347 337 326 326 326 327 337 343 336 313 252 215 205 232 314 122 140 224 215 206 238 256 256 256 159 223 236 238 242 278 343 305 19 70 127 202 206 193 186 178 184 197 210 148 141
349 340 331 324 316 309 285 260 281 260 301 227 254 259 294 333 254 198 122 242 248 244 250 280 210 237 299 338 355 344 340 313 315 168 74 36 344 327 186 201 189 196 218 132 133
347 341 332 324 314 155 216 255 289 290 281 284 216 230 218 205 270 144 171 298 289 278 280 251 263 38 4 340 334 312 325 352 326 106 148 199 304 273 276 187 190 158 91 135 138
345 339 333 320 347 282 261 249 33 70 329 247 185 228 136 226 269 57 344 275 303 287 358 309 59 56 351 306 329 6 11 15 356 17 297 65 272 355 348 312 88 73 74 125 135
340 336 327 3 299 308 316 17 20 46 317 151 172 100 190 206 150 149 183 311 296 320 8 273 354 27 346 26 31 292 35 356 334 328 8 345 36 305 33 3 3 333 79 117 137
335 334 332 110 214 243 289 341 49 8 254 153 144 185 217 211 241 157 185 197 249 296 299 272 241 137 324 2 338 339 350 348 337 326 354 130 71 294 334 172 115 276 237 132 104
331 325 318 319 253 324 3 354 16 228 327 172 182 172 207 203 217 178 87 336 286 289 314 332 325 103 74 348 339 3 36 350 351 4 256 135 147 225 67 76 57 347 324 72 65
326 317 220 236 285 334 2 9 257 275 300 46 13 349 329 349 152 65 153 291 296 89 48 39 347 9 59 341 28 322 199 155 292 320 276 114 151 251 78 88 75 80 77 73 86
314 318 259 250 247 32 41 297 248 319 30 359 348 301 263 234 46 8 253 262 59 46 90 9 295 335 326 256 70 308 332 231 184 297 23 143 353 7 328 41 55 70 76 68 63
320 290 256 254 131 61 53 258 279 293 40 352 336 337 334 79 224 272 16 38 48 51 72 347 327 325 297 18 267 262 218 13 0 32 339 352 112 222 60 46 59 54 41 44 46
308 324 244 337 85 52 218 261 314 79 36 22 10 351 342 0 2 1 43 49 24 18 5 17 76 302 328 41 327 11 349 44 315 151 177 293 226 150 128 80 54 52 64 57 45
326 315 339 65 24 231 232 271 230 346 67 321 344 300 311 8 360 8 22 91 0 25 33 1 249 289 273 312 188 60 15 253 132 280 91 151 278 126 96 86 72 62 55 57 61
318 264 289 95 275 292 320 324 159 9 11 359 8 25 24 11 4 3 3 143 209 89 93 336 346 9 344 353 25 59 304 299 83 73 184 123 236 28 28 50 41 31 29 51 54
298 307 324 12 295 328 6 321 349 83 87 316 342 356 336 332 302 249 237 151 77 83 127 92 299 184 210 265 289 285 170 298 215 134 217 215 59 8 25 40 55 34 55 61 56
249 304 335 331 350 2 7 347 332 321 339 65 70 325 308 295 302 324 7 117 93 155 160 136 189 298 309 312 307 301 318 312 299 271 161 204 143 199 17 55 62 59 48 36 40
310 355 349 291 326 320 306 291 292 307 45 2 21 3 4 55 17 23 30 34 103 261 20 358 278 316 304 306 318 316 319 287 348 325 52 97 89 93 83 83 69 58 43 33 52
333 325 20 296 314 324 274 271 278 62 10 341 23 44 356 15 349 329 59 164 259 246 32 46 19 354 264 320 323 337 287 338 58 33 51 69 71 44 51 81 85 96 67 54 47